This is the latest recevied weather packets stored in our database for station/object LKCS. If no packets are shown the sender has not sent any weather packets the latest 10 day(s).
| Time | Temp. | Humidity | Pressure | Rain* | Wind** | Luminosity | Snow |
|---|---|---|---|---|---|---|---|
| 1788134586 | 63° F | 82% | 762.1 mmHg | - | - | - | - |
| 1788132751 | 64° F | 77% | 762.1 mmHg | - | - | - | - |
| 1788130987 | 64° F | 77% | 762.1 mmHg | - | - | - | - |
| 1788129186 | 64° F | 77% | 762.1 mmHg | - | - | - | - |
| 1788127386 | 64° F | 82% | 762.1 mmHg | - | - | - | - |
| 1788125551 | 64° F | 77% | 762.1 mmHg | - | - | - | - |
| 1788123786 | 66° F | 72% | 762.1 mmHg | - | - | - | - |
| 1788121951 | 66° F | 72% | 762.1 mmHg | - | - | - | - |
| 1788120167 | 66° F | 72% | 762.1 mmHg | - | - | - | - |
| 1788118385 | 68° F | 68% | 762.1 mmHg | - | - | - | - |
| 1788116594 | 70° F | 64% | 762.1 mmHg | - | - | - | - |
| 1788114758 | 70° F | 64% | 762.1 mmHg | - | - | - | - |
| 1788112960 | 73° F | 56% | 762.1 mmHg | - | - | - | - |
| 1788111185 | 73° F | 56% | 761.3 mmHg | - | - | - | - |
| 1788109395 | 77° F | 50% | 761.3 mmHg | - | - | - | - |
| 1788107558 | 79° F | 47% | 761.3 mmHg | - | - | - | - |
| 1788105786 | 79° F | 44% | 761.3 mmHg | - | - | - | - |
| 1788103985 | 81° F | 42% | 761.3 mmHg | - | - | - | - |
| 1788102186 | 81° F | 42% | 762.1 mmHg | - | - | - | - |
| 1788100385 | 81° F | 39% | 762.1 mmHg | - | - | - | - |
| 1788098596 | 81° F | 39% | 762.1 mmHg | - | - | - | - |
| 1788096758 | 81° F | 44% | 762.1 mmHg | - | - | - | - |
| 1788094994 | 81° F | 44% | 762.1 mmHg | - | - | - | - |
| 1788093185 | 79° F | 47% | 762.1 mmHg | - | - | - | - |
| 1788091395 | 79° F | 47% | 762.1 mmHg | - | - | - | - |
* Rain since midnight (hover to see other rain measurements)
** Current wind speed in m/s (hover to see current wind gust speed)